DW8501 Madrid ES current weather conditions

sailwx.info

Wind from 053 at 1 knots gusting 3

Air temperature 19.4° C
Dewpoint 10.2° C

Last reported at 2014-Oct-20 08:50 UTC.
Time now 2014-Oct-20 09:45 UTC

Location: N 40°27' W 003°35'.
View on Google Maps.

See reports from other nearby stations

  
Tides and Currents Weather Stations Pressure Air Temp Water Temp Dewpoint Dewpoint Depression Visibility Wind Speed Wind Dir Waves Ship Positions
date/time (UTC)wind fromknots sea level pressurealtimeterstation pressurevisibilityair tempwater tempwave heightnotes
2014-Oct-20 08:50 053 1 gusting 3 19.4
2014-Oct-20 08:45 053 1 gusting 3 18.9
2014-Oct-20 08:40 047 1 gusting 6 17.8
2014-Oct-20 08:35 050 2 gusting 6 16.7
2014-Oct-20 08:30 052 4 gusting 6 16.7
2014-Oct-20 08:25 044 5 gusting 6 16.7
2014-Oct-20 08:20 043 3 gusting 6 16.7
2014-Oct-20 08:15 043 3 gusting 6 16.1
2014-Oct-20 08:10 043 5 gusting 6 16.7
2014-Oct-20 08:05 034 2 gusting 3 16.1
2014-Oct-20 08:00 004 2 gusting 3 16.1
2014-Oct-20 07:55 339 2 gusting 3 16.1
2014-Oct-20 07:50 341 2 gusting 3 16.1
2014-Oct-20 07:45 354 3 gusting 3 16.1
2014-Oct-20 07:40 020 3 gusting 3 15.6
2014-Oct-20 07:35 041 1 gusting 3 15.6
2014-Oct-20 07:30 037 1 gusting 3 15.0
2014-Oct-20 07:25 013 2 gusting 3 14.4
2014-Oct-20 07:20 348 1 gusting 3 14.4
2014-Oct-20 07:15 328 1 gusting 3 14.4
2014-Oct-20 07:10 326 1 gusting 3 14.4
2014-Oct-20 07:05 328 1 gusting 4 13.9
2014-Oct-20 07:00 332 1 gusting 4 13.9
2014-Oct-20 06:55 341 2 gusting 4 13.3
2014-Oct-20 06:50 359 2 gusting 4 13.3
2014-Oct-20 06:45 023 0 gusting 4 13.3
2014-Oct-20 06:40 029 1 gusting 4 13.3
2014-Oct-20 06:35 026 3 gusting 3 13.3
2014-Oct-20 06:30 035 1 gusting 4 13.3
2014-Oct-20 06:25 046 1 gusting 4 13.3
2014-Oct-20 06:20 050 2 gusting 5 13.3
2014-Oct-20 06:15 039 3 gusting 5 13.3
2014-Oct-20 06:10 039 1 gusting 5 12.8
2014-Oct-20 06:05 044 3 gusting 5 13.3
2014-Oct-20 06:00 046 3 gusting 6 13.3
2014-Oct-20 05:55 046 3 gusting 6 13.3
2014-Oct-20 05:50 044 3 gusting 6 13.3
2014-Oct-20 05:45 047 5 gusting 6 13.3
2014-Oct-20 05:40 048 4 gusting 5 13.3
2014-Oct-20 05:35 043 3 gusting 5 13.3
2014-Oct-20 05:30 035 3 gusting 4 13.3
2014-Oct-20 05:25 023 1 gusting 4 13.3
2014-Oct-20 05:20 004 2 gusting 4 13.3
2014-Oct-20 05:15 358 1 gusting 3 13.3
2014-Oct-20 05:10 358 3 gusting 3 13.3
2014-Oct-20 05:05 350 1 gusting 2 13.3
2014-Oct-20 05:00 335 1 gusting 2 13.3
2014-Oct-20 04:55 13.3
2014-Oct-20 04:50 339 1 gusting 2 13.3
2014-Oct-20 04:45 341 1 gusting 3 13.3
2014-Oct-20 04:40 13.3
2014-Oct-20 04:35 354 1 gusting 2 13.3
2014-Oct-20 04:30 348 0 gusting 2 13.3
2014-Oct-20 04:25 346 0 gusting 3 13.9
2014-Oct-20 04:20 355 0 gusting 3 13.9
2014-Oct-20 04:15 357 1 gusting 3 13.9
2014-Oct-20 04:10 357 1 gusting 2 13.9
2014-Oct-20 04:05 015 1 gusting 3 14.4
2014-Oct-20 04:00 036 1 gusting 4 14.4
2014-Oct-20 03:55 030 2 gusting 4 14.4
2014-Oct-20 03:50 030 1 gusting 4 14.4
2014-Oct-20 03:45 040 3 gusting 5 14.4
2014-Oct-20 03:40 040 3 gusting 5 14.4
2014-Oct-20 03:35 026 3 gusting 3 14.4
2014-Oct-20 03:30 021 3 gusting 3 14.4
2014-Oct-20 03:25 046 2 gusting 3 14.4
2014-Oct-20 03:20 050 1 gusting 4 14.4
2014-Oct-20 03:15 052 3 gusting 4 14.4
2014-Oct-20 03:10 053 2 gusting 3 14.4
2014-Oct-20 03:05 049 1 gusting 5 14.4
2014-Oct-20 03:00 036 1 gusting 5 14.4
2014-Oct-20 02:55 050 3 gusting 5 15.0
2014-Oct-20 02:50 082 1 gusting 3 15.0
2014-Oct-20 02:45 077 2 gusting 3 15.0
2014-Oct-20 02:40 066 2 gusting 4 15.0
2014-Oct-20 02:35 067 1 gusting 5 15.6
2014-Oct-20 02:30 063 2 gusting 6 15.6
2014-Oct-20 02:25 050 3 gusting 6 15.6
2014-Oct-20 02:20 044 3 gusting 5 15.6
2014-Oct-20 02:15 023 1 gusting 5 15.6
2014-Oct-20 02:10 005 2 gusting 5 15.6
2014-Oct-20 02:05 013 2 gusting 5 15.6
2014-Oct-20 02:00 043 2 gusting 6 15.6
2014-Oct-20 01:55 052 3 gusting 6 16.1
2014-Oct-20 01:50 051 3 gusting 6 16.1
2014-Oct-20 01:45 055 3 gusting 6 16.1
2014-Oct-20 01:40 053 2 gusting 6 16.1
2014-Oct-20 01:35 039 4 gusting 6 15.6
2014-Oct-20 01:30 009 3 gusting 4 15.6
2014-Oct-20 01:25 350 3 gusting 4 15.6
2014-Oct-20 01:20 005 1 gusting 4 15.6
2014-Oct-20 01:15 005 2 gusting 4 15.6
2014-Oct-20 01:10 359 3 gusting 4 15.6
2014-Oct-20 01:05 339 1 gusting 3 15.6
2014-Oct-20 01:00 328 1 gusting 3 15.6
2014-Oct-20 00:55 15.6
2014-Oct-20 00:50 337 2 gusting 4 15.6
2014-Oct-20 00:45 332 1 gusting 2 15.6
2014-Oct-20 00:40 327 1 gusting 2 15.6
2014-Oct-20 00:35 335 1 gusting 3 16.1
2014-Oct-20 00:30 16.1
2014-Oct-20 00:25 331 1 gusting 2 16.1
2014-Oct-20 00:20 314 0 gusting 2 16.1
2014-Oct-20 00:15 311 1 gusting 2 16.1
2014-Oct-20 00:10 313 1 gusting 2 16.1
2014-Oct-20 00:05 338 1 gusting 3 16.7
2014-Oct-20 00:00 002 1 gusting 3 16.7
2014-Oct-19 23:55 359 0 gusting 3 16.7
2014-Oct-19 23:50 003 1 gusting 2 16.7
2014-Oct-19 23:45 022 1 gusting 5 16.7
2014-Oct-19 23:40 018 0 gusting 5 16.7
2014-Oct-19 23:35 002 1 gusting 3 16.7
2014-Oct-19 23:30 013 0 gusting 4 16.7
2014-Oct-19 23:25 018 2 gusting 4 17.2
2014-Oct-19 23:20 007 1 gusting 3 17.2
2014-Oct-19 23:15 354 2 gusting 3 17.2
2014-Oct-19 23:10 352 1 gusting 3 17.2
2014-Oct-19 23:05 356 0 gusting 3 17.2
2014-Oct-19 23:00 352 1 gusting 2 17.2
2014-Oct-19 22:55 025 0 gusting 3 17.2
2014-Oct-19 22:50 034 0 gusting 3 17.8
2014-Oct-19 22:45 016 2 gusting 3 17.2
2014-Oct-19 22:40 346 1 gusting 3 17.2
2014-Oct-19 22:35 334 0 gusting 1 17.2
2014-Oct-19 22:30 17.2
2014-Oct-19 22:25 296 1 gusting 1 17.8
2014-Oct-19 22:20 17.8
2014-Oct-19 22:15 275 1 gusting 1 17.8
2014-Oct-19 22:10 312 0 gusting 1 17.8
2014-Oct-19 22:05 18.3
2014-Oct-19 22:00 18.3
2014-Oct-19 21:55 18.3
2014-Oct-19 21:50 18.3
2014-Oct-19 21:45 354 0 gusting 2 18.3
2014-Oct-19 21:40 18.3
2014-Oct-19 21:35 18.3
2014-Oct-19 21:30 18.3
2014-Oct-19 21:25 18.3
2014-Oct-19 21:20 18.9
2014-Oct-19 21:15 18.9
2014-Oct-19 21:10 333 0 gusting 4 18.9
2014-Oct-19 21:05 327 3 gusting 4 18.9
2014-Oct-19 21:00 326 1 gusting 3 19.4
2014-Oct-19 20:55 322 2 gusting 3 19.4
2014-Oct-19 20:50 333 1 gusting 3 19.4
2014-Oct-19 20:45 338 2 gusting 3 19.4
2014-Oct-19 20:40 337 1 gusting 2 19.4
2014-Oct-19 20:35 008 0 gusting 3 20.0
2014-Oct-19 20:30 014 1 gusting 3 20.0
2014-Oct-19 20:25 359 1 gusting 2 20.0
2014-Oct-19 20:20 20.0
2014-Oct-19 20:15 011 1 gusting 3 20.6
2014-Oct-19 20:10 20.6
2014-Oct-19 20:05 039 2 gusting 5 21.1
2014-Oct-19 20:00 048 2 gusting 5 21.1
2014-Oct-19 19:55 047 2 gusting 4 21.1
2014-Oct-19 19:50 026 1 gusting 5 21.1
2014-Oct-19 19:45 037 3 gusting 5 21.1
2014-Oct-19 19:40 052 3 gusting 5 21.1
2014-Oct-19 19:35 053 3 gusting 6 21.1
2014-Oct-19 19:30 051 3 gusting 6 21.1
2014-Oct-19 19:25 056 3 gusting 5 21.1
2014-Oct-19 19:20 027 2 gusting 3 21.1
2014-Oct-19 19:15 21.1
2014-Oct-19 19:10 21.1
2014-Oct-19 19:05 21.1
2014-Oct-19 19:00 355 1 gusting 3 21.1
2014-Oct-19 18:55 341 3 gusting 3 21.1
2014-Oct-19 18:50 331 1 gusting 3 21.7
2014-Oct-19 18:45 309 1 gusting 3 21.7
2014-Oct-19 18:40 299 0 gusting 2 21.7
2014-Oct-19 18:35 311 0 gusting 2 21.7
2014-Oct-19 18:30 324 1 gusting 3 22.2
2014-Oct-19 18:25 352 1 gusting 4 22.2
2014-Oct-19 18:20 358 1 gusting 5 22.2
2014-Oct-19 18:15 338 1 gusting 5 22.2
2014-Oct-19 18:10 314 1 gusting 2 22.2
2014-Oct-19 18:05 22.2
2014-Oct-19 18:00 22.2
2014-Oct-19 17:55 22.8
2014-Oct-19 17:50 22.8
2014-Oct-19 17:45 355 0 gusting 1 22.8
2014-Oct-19 17:40 22.8
2014-Oct-19 17:35 294 0 gusting 1 23.3
2014-Oct-19 17:30 23.3
2014-Oct-19 17:25 011 0 gusting 3 23.9
2014-Oct-19 17:20 019 1 gusting 5 24.4
2014-Oct-19 17:15 033 1 gusting 6 24.4
2014-Oct-19 17:10 049 3 gusting 6 24.4
2014-Oct-19 17:05 046 3 gusting 6 24.4
2014-Oct-19 17:00 043 4 gusting 6 25.0
2014-Oct-19 16:55 041 4 gusting 6 25.0
2014-Oct-19 16:50 041 3 gusting 7 25.0
2014-Oct-19 16:45 038 6 gusting 7 25.6
2014-Oct-19 16:40 030 5 gusting 6 25.6
2014-Oct-19 16:35 022 4 gusting 6 25.6
2014-Oct-19 16:30 017 4 gusting 9 26.1
2014-Oct-19 16:25 017 5 gusting 9 26.1
2014-Oct-19 16:20 031 5 gusting 9 26.7
2014-Oct-19 16:15 043 6 gusting 9 26.7
2014-Oct-19 16:10 045 6 gusting 8 26.7
2014-Oct-19 16:05 045 6 gusting 6 26.7
2014-Oct-19 16:00 042 6 gusting 6 26.7
2014-Oct-19 15:55 040 3 gusting 6 26.7
2014-Oct-19 15:50 043 6 gusting 6 26.7
2014-Oct-19 15:45 045 5 gusting 6 27.2
2014-Oct-19 15:40 050 2 gusting 7 27.2
2014-Oct-19 15:35 042 4 gusting 7 27.2
2014-Oct-19 15:30 037 3 gusting 8 27.8
2014-Oct-19 15:25 044 4 gusting 8 27.2
2014-Oct-19 15:20 047 3 gusting 6 26.7
2014-Oct-19 15:15 050 3 gusting 6 26.7
2014-Oct-19 15:10 040 3 gusting 6 27.2
2014-Oct-19 15:05 048 4 gusting 6 27.8
2014-Oct-19 15:00 051 2 gusting 6 27.8
2014-Oct-19 14:55 024 3 gusting 6 27.8
2014-Oct-19 14:50 027 1 gusting 4 27.2
2014-Oct-19 14:45 060 1 gusting 4 27.8
2014-Oct-19 14:40 084 3 gusting 4 27.8
2014-Oct-19 14:35 077 1 gusting 8 27.2
2014-Oct-19 14:30 071 3 gusting 8 27.2
2014-Oct-19 14:25 066 5 gusting 7 27.8
2014-Oct-19 14:20 050 1 gusting 6 28.3
2014-Oct-19 14:15 032 1 gusting 6 28.3
2014-Oct-19 14:10 056 1 gusting 6 28.3
2014-Oct-19 14:05 055 2 gusting 6 27.8
2014-Oct-19 14:00 048 3 gusting 6 28.9
2014-Oct-19 13:55 071 2 gusting 5 28.9
2014-Oct-19 13:50 066 1 gusting 5 28.3
2014-Oct-19 13:45 064 3 gusting 6 28.3
2014-Oct-19 13:40 27.2
2014-Oct-19 13:35 074 4 gusting 6 26.7
2014-Oct-19 13:30 082 3 gusting 9 26.7
2014-Oct-19 13:25 100 2 gusting 9 26.7
2014-Oct-19 13:20 066 3 gusting 9 26.7
2014-Oct-19 13:15 040 6 gusting 9 26.1
2014-Oct-19 13:10 027 3 gusting 9 26.7
2014-Oct-19 13:05 046 4 gusting 9 26.1
2014-Oct-19 13:00 062 5 gusting 9 25.6
2014-Oct-19 12:55 073 4 gusting 6 26.1
2014-Oct-19 12:50 094 4 gusting 8 26.1
2014-Oct-19 12:45 078 4 gusting 9 25.6
2014-Oct-19 12:40 076 6 gusting 9 25.6
2014-Oct-19 12:35 099 4 gusting 9 25.6
2014-Oct-19 12:30 091 3 gusting 9 25.0
2014-Oct-19 12:25 069 6 gusting 10 25.6
2014-Oct-19 12:20 061 3 gusting 10 25.6
2014-Oct-19 12:15 081 3 gusting 9 25.0
2014-Oct-19 12:10 063 3 gusting 9 24.4
2014-Oct-19 12:05 062 6 gusting 8 24.4
2014-Oct-19 12:00 062 6 gusting 11 24.4
2014-Oct-19 11:55 060 3 gusting 11 24.4
2014-Oct-19 11:50 082 7 gusting 10 24.4
2014-Oct-19 11:45 077 4 gusting 9 24.4
2014-Oct-19 11:40 077 4 gusting 9 24.4
2014-Oct-19 11:35 089 5 gusting 7 23.9
2014-Oct-19 11:30 090 4 gusting 9 23.9
2014-Oct-19 11:25 089 3 gusting 9 23.3
2014-Oct-19 11:20 073 5 gusting 9 22.8
2014-Oct-19 11:15 072 9 gusting 9 22.8
2014-Oct-19 11:10 074 6 gusting 9 22.8
2014-Oct-19 11:05 068 6 gusting 7 23.3
2014-Oct-19 11:00 084 5 gusting 7 23.3
2014-Oct-19 10:55 086 3 gusting 6 22.8
2014-Oct-19 10:50 077 4 gusting 6 22.2
2014-Oct-19 10:45 066 5 gusting 6 22.2
2014-Oct-19 10:40 053 1 gusting 5 21.1
2014-Oct-19 10:35 045 3 gusting 5 20.6
2014-Oct-19 10:30 049 3 gusting 6 20.6
2014-Oct-19 10:25 052 3 gusting 6 20.6
2014-Oct-19 10:20 047 3 gusting 5 20.6
2014-Oct-19 10:15 048 3 gusting 4 20.0
2014-Oct-19 10:10 048 1 gusting 4 19.4
2014-Oct-19 10:05 045 2 gusting 6 18.9
2014-Oct-19 10:00 049 3 gusting 6 18.9
2014-Oct-19 09:55 050 6 gusting 6 18.9
2014-Oct-19 09:50 044 2 gusting 6 18.9
2014-Oct-19 09:45 054 3 gusting 6 18.3
2014-Oct-19 09:40 059 3 gusting 6 17.8
2014-Oct-19 09:35 058 4 gusting 6 17.8
2014-Oct-19 09:30 062 1 gusting 5 17.8
2014-Oct-19 09:25 054 3 gusting 5 17.8
2014-Oct-19 09:20 043 3 gusting 6 17.2
2014-Oct-19 09:15 043 3 gusting 6 17.2
2014-Oct-19 09:10 051 5 gusting 6 17.2
2014-Oct-19 09:05 049 3 gusting 6 16.7
2014-Oct-19 09:00 043 3 gusting 6 16.7
2014-Oct-19 08:55 046 5 gusting 6 16.7
2014-Oct-19 08:50 050 1 gusting 5 16.7
2014-Oct-19 08:45 050 2 gusting 3 16.7
2014-Oct-19 08:40 054 1 gusting 5 15.6
2014-Oct-19 08:35 036 2 gusting 5 15.6
2014-Oct-19 08:30 023 3 gusting 5 15.6
2014-Oct-19 08:25 038 2 gusting 4 15.0
2014-Oct-19 08:20 048 3 gusting 4 15.0
2014-Oct-19 08:15 050 3 gusting 4 15.0
2014-Oct-19 08:10 047 3 gusting 4 14.4
2014-Oct-19 08:05 045 3 gusting 5 14.4
2014-Oct-19 08:00 045 3 gusting 5 14.4
2014-Oct-19 07:55 046 3 gusting 5 14.4
2014-Oct-19 07:50 043 3 gusting 4 14.4
2014-Oct-19 07:45 048 1 gusting 4 13.9
2014-Oct-19 07:40 059 3 gusting 5 13.9
2014-Oct-19 07:35 057 2 gusting 5 13.9
2014-Oct-19 07:30 054 2 gusting 5 13.9
2014-Oct-19 07:25 053 3 gusting 3 13.9
2014-Oct-19 07:20 045 2 gusting 4 13.9
2014-Oct-19 07:15 045 2 gusting 4 13.9
2014-Oct-19 07:10 045 2 gusting 3 13.9
2014-Oct-19 07:05 048 1 gusting 4 13.9
2014-Oct-19 07:00 050 1 gusting 5 13.9
2014-Oct-19 06:55 049 3 gusting 6 13.9
2014-Oct-19 06:50 044 3 gusting 6 13.3
2014-Oct-19 06:45 043 2 gusting 5 13.3
2014-Oct-19 06:40 049 4 gusting 6 13.3
2014-Oct-19 06:35 059 3 gusting 6 13.3
2014-Oct-19 06:30 053 4 gusting 6 13.3
2014-Oct-19 06:25 056 2 gusting 5 13.3
2014-Oct-19 06:20 054 2 gusting 6 13.3
2014-Oct-19 06:15 046 3 gusting 6 13.3
2014-Oct-19 06:10 045 3 gusting 5 13.3
2014-Oct-19 06:05 045 3 gusting 4 13.3
2014-Oct-19 06:00 047 3 gusting 5 13.3
2014-Oct-19 05:55 047 2 gusting 5 13.3
2014-Oct-19 05:50 046 3 gusting 6 13.3
2014-Oct-19 05:45 047 3 gusting 6 13.3
2014-Oct-19 05:40 044 1 gusting 6 13.3
2014-Oct-19 05:35 040 4 gusting 5 13.3
2014-Oct-19 05:30 042 3 gusting 5 13.3
2014-Oct-19 05:25 047 3 gusting 6 13.3
2014-Oct-19 05:20 047 3 gusting 6 13.9
2014-Oct-19 05:15 048 1 gusting 6 13.9
2014-Oct-19 05:10 055 4 gusting 6 13.9
2014-Oct-19 05:05 055 1 gusting 6 13.9
2014-Oct-19 05:00 050 3 gusting 6 13.9
2014-Oct-19 04:55 047 3 gusting 4 13.9
2014-Oct-19 04:50 045 2 gusting 4 13.9
2014-Oct-19 04:45 050 2 gusting 3 13.9
2014-Oct-19 04:40 058 1 gusting 3 13.9
2014-Oct-19 04:35 054 1 gusting 3 13.9
2014-Oct-19 04:30 048 2 gusting 3 13.9
2014-Oct-19 04:25 046 2 gusting 6 14.4
2014-Oct-19 04:20 046 2 gusting 6 14.4
2014-Oct-19 04:15 046 3 gusting 6 14.4
2014-Oct-19 04:10 046 5 gusting 6 14.4
2014-Oct-19 04:05 043 2 gusting 5 14.4
2014-Oct-19 04:00 043 2 gusting 5 14.4
2014-Oct-19 03:55 044 3 gusting 4 14.4
2014-Oct-19 03:50 043 2 gusting 4 14.4
2014-Oct-19 03:45 045 3 gusting 5 14.4
2014-Oct-19 03:40 048 3 gusting 5 14.4
2014-Oct-19 03:35 038 3 gusting 6 14.4
2014-Oct-19 03:30 034 2 gusting 6 14.4
2014-Oct-19 03:25 034 5 gusting 6 15.0
2014-Oct-19 03:20 032 2 gusting 6 15.0
2014-Oct-19 03:15 022 3 gusting 6 15.0
2014-Oct-19 03:10 016 3 gusting 5 15.0
2014-Oct-19 03:05 035 3 gusting 6 15.0
2014-Oct-19 03:00 032 2 gusting 6 15.0
2014-Oct-19 02:55 020 1 gusting 6 15.0
2014-Oct-19 02:50 035 5 gusting 6 14.4
2014-Oct-19 02:45 038 1 gusting 8 14.4
2014-Oct-19 02:40 037 4 gusting 8 14.4
2014-Oct-19 02:35 041 6 gusting 6 14.4
2014-Oct-19 02:30 035 3 gusting 6 14.4
2014-Oct-19 02:25 027 3 gusting 6 14.4
2014-Oct-19 02:20 020 3 gusting 4 14.4
2014-Oct-19 02:15 013 1 gusting 6 14.4
2014-Oct-19 02:10 339 2 gusting 6 14.4
2014-Oct-19 02:05 005 4 gusting 9 15.0
2014-Oct-19 02:00 034 4 gusting 9 15.0
2014-Oct-19 01:55 031 5 gusting 6 15.0
2014-Oct-19 01:50 038 3 gusting 6 15.0
2014-Oct-19 01:45 028 1 gusting 4 15.0
2014-Oct-19 01:40 015 3 gusting 3 15.0
2014-Oct-19 01:35 15.0
2014-Oct-19 01:30 033 1 gusting 6 15.0
2014-Oct-19 01:25 036 2 gusting 6 15.0
2014-Oct-19 01:20 027 1 gusting 6 15.6
2014-Oct-19 01:15 020 3 gusting 6 15.6
2014-Oct-19 01:10 028 3 gusting 6 15.6
2014-Oct-19 01:05 025 3 gusting 6 15.6
2014-Oct-19 01:00 014 3 gusting 5 15.6
2014-Oct-19 00:55 030 2 gusting 6 15.6
2014-Oct-19 00:50 036 1 gusting 6 16.1
2014-Oct-19 00:45 036 5 gusting 6 15.6
2014-Oct-19 00:40 038 5 gusting 6 15.6
2014-Oct-19 00:35 042 3 gusting 6 15.6
2014-Oct-19 00:30 041 3 gusting 7 16.1
2014-Oct-19 00:25 036 4 gusting 7 15.6
2014-Oct-19 00:20 034 4 gusting 6 15.6
2014-Oct-19 00:15 027 3 gusting 6 15.6
2014-Oct-19 00:10 359 4 gusting 6 15.6
2014-Oct-19 00:05 357 2 gusting 6 16.1
2014-Oct-19 00:00 029 2 gusting 6 16.1
2014-Oct-18 23:55 038 6 gusting 7 16.1
2014-Oct-18 23:50 041 6 gusting 7 16.1
2014-Oct-18 23:45 039 5 gusting 6 16.1
2014-Oct-18 23:40 033 4 gusting 6 16.1
2014-Oct-18 23:35 032 1 gusting 6 16.1
2014-Oct-18 23:30 030 4 gusting 6 16.1
2014-Oct-18 23:25 028 1 gusting 6 16.1
2014-Oct-18 23:20 038 3 gusting 6 16.1
2014-Oct-18 23:15 043 4 gusting 6 16.1
2014-Oct-18 23:10 045 3 gusting 6 16.1
2014-Oct-18 23:05 036 2 gusting 5 16.1
2014-Oct-18 23:00 022 1 gusting 5 16.1
2014-Oct-18 22:55 020 1 gusting 4 16.1
2014-Oct-18 22:50 024 1 gusting 4 16.7
2014-Oct-18 22:45 032 3 gusting 6 16.7
2014-Oct-18 22:40 040 2 gusting 6 16.7
2014-Oct-18 22:35 042 1 gusting 5 16.7
2014-Oct-18 22:30 032 1 gusting 6 16.7
2014-Oct-18 22:25 028 3 gusting 6 16.7
2014-Oct-18 22:20 031 1 gusting 3 17.2
2014-Oct-18 22:15 021 1 gusting 3 17.2
2014-Oct-18 22:10 007 2 gusting 3 17.2
2014-Oct-18 22:05 017 1 gusting 4 17.2
2014-Oct-18 22:00 018 1 gusting 4 17.2
2014-Oct-18 21:55 346 1 gusting 3 17.2
2014-Oct-18 21:50 336 1 gusting 3 17.2
2014-Oct-18 21:45 016 2 gusting 3 17.2
2014-Oct-18 21:40 023 1 gusting 4 17.8
2014-Oct-18 21:35 004 1 gusting 4 17.8
2014-Oct-18 21:30 355 1 gusting 3 17.8
2014-Oct-18 21:25 339 1 gusting 2 17.8
2014-Oct-18 21:20 012 0 gusting 2 17.8
2014-Oct-18 21:15 17.8
2014-Oct-18 21:10 034 1 gusting 2 17.8
2014-Oct-18 21:05 17.8
2014-Oct-18 21:00 038 0 gusting 3 18.3
2014-Oct-18 20:55 18.3
2014-Oct-18 20:50 039 1 gusting 3 18.3
2014-Oct-18 20:45 005 1 gusting 3 18.3
2014-Oct-18 20:40 336 2 gusting 3 18.3
2014-Oct-18 20:35 020 0 gusting 3 18.3
2014-Oct-18 20:30 044 1 gusting 3 18.9
2014-Oct-18 20:25 028 2 gusting 3 18.9
2014-Oct-18 20:20 18.9
2014-Oct-18 20:15 029 0 gusting 3 18.9
2014-Oct-18 20:10 046 1 gusting 3 19.4
2014-Oct-18 20:05 045 1 gusting 3 19.4
2014-Oct-18 20:00 045 1 gusting 3 19.4
2014-Oct-18 19:55 040 1 gusting 3 19.4
2014-Oct-18 19:50 029 2 gusting 3 19.4
2014-Oct-18 19:45 19.4
2014-Oct-18 19:40 018 1 gusting 3 20.0
2014-Oct-18 19:35 20.0
2014-Oct-18 19:30 20.0
2014-Oct-18 19:25 005 0 gusting 3 20.0
2014-Oct-18 19:20 005 2 gusting 3 20.6
2014-Oct-18 19:15 048 1 gusting 3 20.6
2014-Oct-18 19:10 067 1 gusting 3 20.6
2014-Oct-18 19:05 053 2 gusting 3 21.1
2014-Oct-18 19:00 049 3 gusting 6 21.1
2014-Oct-18 18:55 050 3 gusting 6 21.1
2014-Oct-18 18:50 028 2 gusting 5 20.6
2014-Oct-18 18:45 022 1 gusting 5 20.6
2014-Oct-18 18:40 038 0 gusting 1 20.6
2014-Oct-18 18:35 343 0 gusting 3 20.6
2014-Oct-18 18:30 21.1
2014-Oct-18 18:25 340 1 gusting 2 21.1
2014-Oct-18 18:20 339 1 gusting 3 21.1
2014-Oct-18 18:15 346 1 gusting 4 21.1
2014-Oct-18 18:10 346 1 gusting 4 21.7
2014-Oct-18 18:05 358 1 gusting 3 21.7
2014-Oct-18 18:00 032 1 gusting 3 21.7
2014-Oct-18 17:55 037 1 gusting 3 21.7
2014-Oct-18 17:50 22.2
2014-Oct-18 17:45 22.2
2014-Oct-18 17:40 028 1 gusting 2 22.2
2014-Oct-18 17:35 042 1 gusting 4 22.8
2014-Oct-18 17:30 045 1 gusting 6 22.8
2014-Oct-18 17:25 045 3 gusting 6 23.3
2014-Oct-18 17:20 041 3 gusting 6 23.9
2014-Oct-18 17:15 017 3 gusting 6 24.4
2014-Oct-18 17:10 325 2 gusting 3 25.6
2014-Oct-18 17:05 316 1 gusting 3 26.1
2014-Oct-18 17:00 283 1 gusting 3 26.1
2014-Oct-18 16:55 269 0 gusting 3 26.1
2014-Oct-18 16:50 263 2 gusting 3 26.1
2014-Oct-18 16:45 279 1 gusting 6 26.1
2014-Oct-18 16:40 284 3 gusting 8 26.1
2014-Oct-18 16:35 278 6 gusting 9 26.1
2014-Oct-18 16:30 271 6 gusting 9 26.1
2014-Oct-18 16:25 268 3 gusting 7 26.7
2014-Oct-18 16:20 272 5 gusting 8 26.7
2014-Oct-18 16:15 276 4 gusting 12 26.7
2014-Oct-18 16:10 273 6 gusting 12 26.7
2014-Oct-18 16:05 270 6 gusting 6 26.7
2014-Oct-18 16:00 267 6 gusting 9 26.7
2014-Oct-18 15:55 273 6 gusting 9 26.7
2014-Oct-18 15:50 262 3 gusting 7 27.2
2014-Oct-18 15:45 237 3 gusting 12 26.7
2014-Oct-18 15:40 245 6 gusting 12 26.7
2014-Oct-18 15:35 273 6 gusting 10 26.7
2014-Oct-18 15:30 287 3 gusting 9 26.7
2014-Oct-18 15:25 262 4 gusting 9 26.7
2014-Oct-18 15:20 256 6 gusting 9 26.7
2014-Oct-18 15:15 244 3 gusting 13 27.2
2014-Oct-18 15:10 234 5 gusting 13 26.7
2014-Oct-18 15:05 229 6 gusting 13 26.7
2014-Oct-18 15:00 241 2 gusting 9 26.7
2014-Oct-18 14:55 236 6 gusting 12 25.6
2014-Oct-18 14:50 233 6 gusting 12 25.6
2014-Oct-18 14:45 260 7 gusting 11 25.6
2014-Oct-18 14:40 280 7 gusting 11 26.1
2014-Oct-18 14:35 260 7 gusting 11 26.1
2014-Oct-18 14:30 228 5 gusting 8 26.7
2014-Oct-18 14:25 232 4 gusting 10 27.2
2014-Oct-18 14:20 257 5 gusting 11 26.7
2014-Oct-18 14:15 265 9 gusting 11 27.2
2014-Oct-18 14:10 295 2 gusting 6 26.7
2014-Oct-18 14:05 294 3 gusting 9 25.6
2014-Oct-18 14:00 241 3 gusting 9 25.6
2014-Oct-18 13:55 240 6 gusting 9 25.6
2014-Oct-18 13:50 219 6 gusting 9 25.0
2014-Oct-18 13:45 207 4 gusting 9 25.6
2014-Oct-18 13:40 223 3 gusting 6 25.6
2014-Oct-18 13:35 207 2 gusting 7 26.1
2014-Oct-18 13:30 209 2 gusting 7 25.6
2014-Oct-18 13:25 242 2 gusting 9 25.6
2014-Oct-18 13:20 233 3 gusting 10 25.0
2014-Oct-18 13:15 226 6 gusting 10 25.6
2014-Oct-18 13:10 233 3 gusting 7 26.1
2014-Oct-18 13:05 214 2 gusting 6 26.7
2014-Oct-18 13:00 185 1 gusting 4 26.7
2014-Oct-18 12:55 183 2 gusting 3 26.7
2014-Oct-18 12:50 169 2 gusting 6 26.7
2014-Oct-18 12:45 158 2 gusting 6 26.7
2014-Oct-18 12:40 27.2
2014-Oct-18 12:35 154 1 gusting 5 27.8
2014-Oct-18 12:30 151 0 gusting 5 27.2
2014-Oct-18 12:25 147 3 gusting 6 26.1
2014-Oct-18 12:20 25.6
2014-Oct-18 12:15 172 1 gusting 3 25.0
2014-Oct-18 12:10 121 2 gusting 3 24.4
2014-Oct-18 12:05 111 1 gusting 3 23.9
2014-Oct-18 12:00 137 1 gusting 3 23.9
2014-Oct-18 11:55 194 1 gusting 3 23.3
2014-Oct-18 11:50 161 2 gusting 3 22.8
2014-Oct-18 11:45 123 1 gusting 5 22.2
2014-Oct-18 11:40 125 2 gusting 5 22.2
2014-Oct-18 11:35 119 2 gusting 5 22.2
2014-Oct-18 11:30 113 3 gusting 5 21.7
2014-Oct-18 11:25 090 3 gusting 6 22.2
2014-Oct-18 11:20 089 3 gusting 6 22.8
2014-Oct-18 11:15 127 1 gusting 4 22.8
2014-Oct-18 11:10 095 2 gusting 4 22.2
2014-Oct-18 11:05 092 1 gusting 4 22.2
2014-Oct-18 11:00 109 1 gusting 6 21.7
2014-Oct-18 10:55 099 2 gusting 6 21.1
2014-Oct-18 10:50 106 4 gusting 6 20.6
2014-Oct-18 10:45 116 2 gusting 5 20.0
2014-Oct-18 10:40 079 2 gusting 6 20.0
2014-Oct-18 10:35 051 3 gusting 6 19.4
2014-Oct-18 10:30 054 2 gusting 6 18.9
2014-Oct-18 10:25 055 5 gusting 6 19.4
2014-Oct-18 10:20 048 5 gusting 6 19.4
2014-Oct-18 10:15 066 3 gusting 5 20.0
2014-Oct-18 10:10 111 1 gusting 4 20.0
2014-Oct-18 10:05 137 0 gusting 3 20.0
2014-Oct-18 10:00 128 0 gusting 4 20.0
2014-Oct-18 09:55 117 1 gusting 4 20.0
2014-Oct-18 09:50 098 1 gusting 3 20.0
2014-Oct-18 09:45 101 1 gusting 3 20.0
2014-Oct-18 09:40 117 0 gusting 3 19.4
2014-Oct-18 09:35 094 1 gusting 4 18.9
2014-Oct-18 09:30 077 2 gusting 4 18.9
2014-Oct-18 09:25 081 1 gusting 3 18.9
2014-Oct-18 09:20 095 0 gusting 3 17.8
2014-Oct-18 09:15 097 2 gusting 5 17.8
2014-Oct-18 09:10 080 1 gusting 5 16.7
2014-Oct-18 09:05 055 3 gusting 6 16.7
2014-Oct-18 09:00 054 3 gusting 6 16.1